SCP
0 0 0 0 0 0 0 0 0 0 0 0 0 0 0 0 0 0 0 0 0 0 0 0 0 0 0 0 0 0 0 0 0 0 0 0 0 0 0 0 0 0 0
0 0 0 0 0 0 0 0 0 0 0 0 0 0 0 0 0 0 0 0 0 0 0 0 0 0 0 0 0 0 0 0 0 0 0 0 0 0 0 0 0 0 0
0 0 0 0 0 0 0 0 0 0 0 0 0 0 0 0 0 0 0 0 0 0 0 0 0 0 0 0 0 0 0 0 0 0 0 0 0 0 0 0 0 0 0
0 0 0 0 0 0 0 0 0 0 0 0 0 0 0 0 0 0 0 0 0 0 0 0 0 0 0 0 0 0 0 0 0 0 0 0 0 0 0 0 0 0 0
0 0 0 0 0 0 0 0 0 0 0 0 0 0 0 0 0 0 0 0 0 0 0 0 0 0 0 0 0 0 0 0 0 0 0 0 0 0 0 0 0 0 0
0 0 0 0 0 0 0 0 0 0 0 0 0 0 0 0 0 0 0 0 0 0 0 0 0 0 0 0 0 0 0 0 0 0 0 0 0 0 0 0 0 0 0
0 0 0 0 0 0 0 0 0 0 0 0 0 0 0 0 0 0 0 0 0 0 0 0 0 0 0 0 0 0 0 0 0 0 0 0 0 0 0 0 0 0 0
0 0 0 0 0 0 0 0 0 0 0 0 0 0 0 0 0 0 0 0 0 0 0 0 0 0 0 0 0 0 0 0 0 0 0 0 0 0 0 0 0 0 0
0 0 0 0 0 0 0 0 0 0 0 0 0 0 0 0 0 0 0 0 0 0 0 0 0 0 0 0 0 0 0 0 0 0 0 0 0 0 0 0 0 0 0
0 0 0 0 0 0 0 0 0 0 0 0 0 0 0 0 0 0 0 0 0 0 0 0 0 0 0 0 0 0 0 0 0 0 0 0 0 0 0 0 0 0 0
0 0 0 0 0 0 0 0 0 0 0 0 0 0 0 0 0 0 0 0 0 0 0 0 0 0 0 0 0 0 0 0 0 0 0 0 0 0 0 0 0 0 0
0 0 0 0 0 0 0 0 0 0 0 0 0 0 0 0 0 0 0 0 0 0 0 0 0 0 0 0 0 0 0 0 0 0 0 0 0 0 0 0 0 0 0
0 0 0 0 0 0 0 0 0 0 0 0 0 0 0 0 0 0 0 0 0 0 0 0 0 0 0 0 0 0 0 0 0 0 0 0 0 0 0 0 0 0 0
0 0 0 0 0 0 0 0 0 0 0 0 0 0 0 0 0 0 0 0 0 0 0 0 0 0 0 0 0 0 0 0 0 0 0 0 0 0 0 0 0 0 0
0 0 0 0 0 0 0 0 0 0 0 0 0 0 0 0 0 0 0 0 0 0 0 0 0 0 0 0 0 0 0 0 0 0 0 0 0 0 0 0 0 0 0
0 0 0 0 0 0 0 0 0 0 0 0 0 0 0 0 0 0 0 0 0 0 0 0 0 0 0 0 0 0 0 0 0 0 0 0 0 0 0 0 0 0 0
0 0 0 0 0 0 0 0 0 0 0 0 0 0 0 0 0 0 0 0 0 0 0 0 0 0 0 0 0 0 0 0 0 0 0 0 0 0 0 0 0 0 0
0 0 0 0 0 0 0 0 0 0 0 0 0 0 0 0 0 0 0 0 0 0 0 0 0 0 0 0 0 0 0 0 0 0 0 0 0 0 0 0 0 0 0
0 0 0 0 0 0 0 0 0 0 0 0 0 0 0 0 0 0 0 0 0 0 0 0 0 0 0 0 0 0 0 0 0 0 0 0 0 0 0 0 0 0 0
0 0 0 0 0 0 0 0 0 0 0 0 0 0 0 0 0 0 0 0 0 0 0 0 0 0 0 0 0 0 0 0 0 0 0 0 0 0 0 0 0 0 0
0 0 0 0 0 0 0 0 0 0 0 0 0 0 0 0 0 0 0 0 0 0 0 0 0 0 0 0 0 0 0 0 0 0 0 0 0 0 0 0 0 0 0
0 0 0 0 0 0 0 0 0 0 0 0 0 0 0 0 0 0 0 0 0 0 0 0 0 0 0 0 0 0 0 0 0 0 0 0 0 0 0 0 0 0 0
0 0 0 0 0 0 0 0 0 0 0 0 0 0 0 0 0 0 0 0 0 0 0 0 0 0 0 0 0 0 0 0 0 0 0 0 0 0 0 0 0 0 0
0 0 0 0 0 0 0 0 0 0 0 0 0 0 0 0 0 0 0 0 0 -0 -0 0 0 0 0 0 0 0 0 0 0 0 0 0 0 0 0 0 0 0 0
0 0 0 0 0 0 0 0 0 0 0 0 0 0 0 0 0 0 0 0 -0 -0 0 -0 -0 -0 -0 0 0 0 0 0 0 0 0 0 0 0 0 0 0 0 0
0 0 0 0 0 0 0 0 0 0 0 0 0 0 0 0 0 0 0 0 0 0 0 0 0 -0 0 0 0 0 0 0 0 0 0 0 0 0 0 0 0 0 0
Wind_Speed_500mb
35 37 40 45 49 50 50 50 51 48 50 58 60 61 60 58 58 57 49 46 42 37 38 40 42 46 39 35 34 34 33 36 38 41 46 47 51 51 52 55 56 58 55
33 33 40 45 48 57 58 57 57 57 58 56 61 62 62 63 63 58 55 53 48 45 41 41 43 41 38 41 41 42 44 44 43 45 49 52 57 57 53 46 43 45 48
37 45 44 41 43 47 53 55 60 61 65 63 59 59 57 61 61 65 65 64 60 58 56 46 49 48 46 45 42 46 49 51 53 55 51 23 18 39 46 46 49 50 53
33 30 34 35 42 47 51 55 61 64 66 66 69 67 68 67 69 66 65 64 59 61 57 52 52 55 52 56 53 55 58 58 58 62 67 62 67 54 42 57 62 60 69
45 49 54 53 57 57 57 62 64 70 71 68 74 73 65 63 56 54 60 64 60 59 59 60 58 57 56 54 59 55 59 58 61 58 66 62 64 66 69 71 68 65 67
38 41 42 42 46 47 45 47 55 61 62 70 67 71 63 60 59 60 54 52 51 51 51 55 54 57 49 57 53 55 52 52 52 53 55 57 64 61 60 65 69 71 76
28 26 24 23 25 25 27 32 38 46 51 57 70 57 51 51 54 57 61 50 44 43 39 37 43 47 48 48 48 46 48 47 47 56 57 53 57 54 53 59 67 72 81
27 25 22 19 17 15 16 15 20 28 35 39 50 59 49 44 43 48 54 51 44 39 37 38 40 41 44 45 46 48 50 47 51 50 49 49 49 51 51 57 64 73 79
28 28 24 22 19 16 14 11 13 19 24 32 40 44 42 36 39 41 45 47 43 41 40 39 40 40 41 43 45 45 50 49 50 46 50 51 49 53 55 55 59 64 69
28 26 26 24 23 20 17 16 16 18 21 25 29 37 35 31 36 41 42 39 38 38 39 40 40 40 42 44 47 49 46 51 47 48 49 50 51 53 56 58 61 64 73
32 30 31 27 22 20 19 19 19 19 19 20 22 23 24 24 26 28 31 34 35 35 36 35 37 39 39 41 46 45 43 45 46 46 49 51 51 55 57 58 60 64 69
38 38 33 28 26 24 23 24 24 21 19 19 22 24 23 23 22 24 24 25 25 27 27 30 31 31 29 29 31 32 35 38 40 43 46 48 50 53 53 56 60 62 65
35 33 32 30 29 28 28 26 24 23 23 24 23 22 22 22 21 20 20 19 18 17 15 15 16 17 20 24 26 28 28 31 34 37 41 45 49 53 54 57 60 65 68
36 38 37 39 38 35 31 28 29 28 28 28 26 25 25 24 22 19 17 15 12 10 9 7 5 8 13 19 23 27 30 33 37 40 44 47 50 53 55 58 61 64 68
48 50 49 47 42 41 40 39 36 35 33 32 30 29 28 25 22 19 15 11 7 3 2 5 10 14 21 27 33 37 40 44 47 48 51 54 55 56 58 62 64 66 70
59 56 53 53 51 49 46 43 40 35 33 34 31 29 26 24 20 15 10 5 1 5 9 12 14 18 23 30 36 43 46 48 52 56 58 60 63 65 66 67 69 70 72
63 62 65 61 57 56 51 46 44 40 40 34 31 28 23 18 14 10 6 2 3 7 12 16 20 23 30 38 45 51 54 57 60 64 68 70 70 73 75 75 75 74 71
63 67 72 70 65 60 57 52 47 45 39 35 31 27 22 17 12 7 3 5 9 15 20 24 29 33 39 46 52 57 62 65 66 68 69 71 72 71 73 75 76 76 74
79 79 78 76 70 67 56 51 50 46 40 34 29 24 19 13 8 3 5 12 18 23 28 34 37 40 42 47 52 58 63 66 68 68 67 68 70 69 69 71 75 78 78
64 69 74 75 71 63 58 57 52 44 37 31 26 20 13 6 5 11 19 27 32 34 34 36 40 44 46 48 51 56 62 66 68 71 72 72 72 72 63 63 70 83 91
65 69 72 72 66 62 61 56 48 41 35 28 19 11 8 11 15 19 22 25 29 33 36 38 40 45 49 52 56 58 61 64 69 73 78 76 74 74 69 66 72 78 76
65 70 72 67 65 62 58 54 47 38 29 19 13 9 9 15 20 21 21 26 31 36 38 41 43 47 50 54 58 60 61 65 72 77 81 83 82 77 73 72 73 66 65
60 61 62 65 62 58 50 48 40 32 23 13 7 5 7 13 13 16 20 25 32 37 42 47 51 54 55 57 58 61 64 66 70 73 78 80 81 80 85 78 69 66 63
46 48 57 61 62 56 47 39 31 23 15 8 3 13 12 9 12 18 23 29 34 39 45 50 55 58 58 58 60 64 67 69 71 74 77 77 77 76 74 72 68 65 64
42 51 56 59 57 48 35 30 25 18 13 21 15 9 9 10 15 21 26 30 34 38 43 47 51 56 59 58 61 63 66 67 68 69 69 72 71 71 71 69 66 65 61
56 58 57 50 39 38 37 29 24 28 20 17 17 10 8 14 19 22 23 26 29 33 39 43 47 50 51 55 59 60 59 61 58 56 50 55 57 60 63 66 68 63 63
Wind_Direction_500mb
237 231 232 223 212 215 218 225 240 241 236 227 226 228 230 230 232 233 233 228 238 238 235 241 243 246 247 246 250 254 257 259 264 271 278 281 283 286 285 285 288 286 285
226 223 217 224 224 220 222 221 227 243 248 243 237 235 235 236 240 238 232 230 234 240 241 238 244 252 246 246 252 261 265 268 267 269 274 281 285 287 291 288 286 290 288
229 214 220 230 226 225 225 226 228 228 244 251 250 230 230 235 237 237 237 237 240 244 252 250 248 249 248 249 258 261 265 269 271 274 269 265 258 282 293 291 287 285 289
223 192 197 211 229 233 233 230 230 229 227 243 248 246 231 231 238 238 241 239 238 244 250 253 255 255 258 257 259 264 268 268 272 276 271 279 275 270 286 283 285 285 286
230 233 231 230 240 246 242 240 238 235 229 225 244 248 247 234 236 241 241 245 244 243 246 251 255 258 261 260 265 265 267 277 272 284 274 277 279 278 272 278 294 292 291
219 233 240 241 245 249 249 243 240 238 234 222 234 245 246 236 234 239 245 244 244 243 246 250 250 254 259 259 261 266 267 272 271 276 286 273 277 283 285 283 291 291 296
227 228 229 232 242 248 247 244 239 234 230 223 219 237 240 238 240 240 244 248 248 245 248 251 250 256 259 262 264 266 269 272 278 279 287 282 283 283 287 289 291 293 297
211 217 220 218 221 224 233 230 232 229 225 224 220 221 238 242 242 239 243 248 253 255 255 254 253 255 257 261 264 272 275 273 282 277 283 284 284 285 288 289 293 295 294
217 216 211 212 215 218 235 229 226 224 221 217 218 218 218 228 235 234 234 241 249 252 254 253 254 256 259 263 270 273 273 278 280 279 287 285 285 287 290 291 290 292 289
212 216 218 220 222 224 227 231 225 218 213 216 220 215 214 222 229 233 235 239 247 253 256 255 256 257 261 263 267 266 273 278 278 284 284 285 286 287 287 288 289 289 291
218 217 221 222 223 222 222 223 223 220 211 201 197 202 208 212 216 220 231 236 243 248 254 256 258 257 260 260 267 272 276 277 280 283 286 288 288 286 286 287 286 285 284
214 216 221 219 213 212 211 211 210 205 201 191 180 173 179 188 198 206 214 222 228 238 243 248 255 259 261 266 270 272 276 282 286 289 291 294 297 297 298 298 298 297 294
206 213 214 210 207 205 205 202 193 189 182 179 179 176 179 186 190 195 203 210 216 221 230 245 257 269 278 282 284 289 293 296 300 303 304 305 305 305 305 306 303 300 299
216 216 209 205 203 200 197 191 185 182 178 174 171 168 166 166 167 166 169 171 176 186 196 212 249 287 298 300 299 298 299 300 301 302 302 303 303 304 304 302 299 298 296
219 219 211 208 201 197 192 188 186 184 181 177 169 165 162 161 159 156 151 147 147 156 272 305 314 315 313 309 305 304 304 303 303 304 304 302 301 300 299 299 300 299 298
225 217 212 211 205 200 197 192 191 186 181 177 169 164 162 160 159 154 148 139 349 330 322 323 327 325 318 313 311 310 311 311 310 310 309 309 309 307 305 302 299 297 297
228 216 216 213 207 202 201 195 192 188 183 174 169 166 163 161 156 150 144 120 355 340 329 333 331 328 321 317 315 313 315 315 314 312 310 306 305 304 304 303 301 299 297
231 226 223 215 210 206 202 196 189 182 181 175 172 169 167 164 155 142 104 10 343 333 333 334 328 331 323 317 317 314 311 309 307 305 304 304 305 306 306 305 304 304 303
247 234 224 217 207 206 200 192 186 184 180 177 173 169 164 158 146 114 359 341 337 333 333 333 322 320 320 317 316 314 312 310 308 307 306 306 307 308 309 309 308 307 307
235 225 221 215 207 199 195 190 186 182 178 172 167 158 146 120 32 358 347 339 332 326 321 327 327 325 324 324 323 321 319 317 316 315 316 316 316 316 315 311 310 306 309
221 214 210 207 198 192 188 184 182 177 169 160 148 123 65 13 352 343 326 315 319 327 328 329 330 330 331 332 330 329 327 324 321 320 320 318 316 313 310 307 302 301 306
198 205 204 197 188 185 183 179 174 164 153 141 119 82 17 341 314 300 315 323 328 328 328 331 334 335 336 334 332 329 326 323 320 320 318 317 317 314 311 308 306 302 306
197 198 197 184 178 175 173 171 163 148 136 124 117 42 309 274 297 317 325 329 330 330 331 333 334 333 332 331 328 325 324 322 320 319 316 315 315 317 317 319 315 315 312
201 194 186 177 171 167 159 155 152 152 155 129 134 231 241 285 315 323 327 328 327 329 332 332 330 327 328 328 326 326 325 325 322 321 319 320 321 322 326 327 328 324 323
203 186 180 172 163 161 167 172 173 164 158 199 199 235 260 303 319 319 321 328 330 328 330 330 331 330 331 333 333 330 330 328 326 322 323 324 326 327 330 330 327 325 322
188 178 172 168 172 177 182 170 159 187 186 217 215 224 268 291 303 314 322 322 325 333 336 335 333 332 332 331 330 328 325 328 327 328 322 319 320 319 322 325 328 326 326
Wind_Speed_850mb
35 37 40 45 49 50 50 50 51 48 50 58 60 61 60 58 58 57 49 46 42 37 38 40 42 46 39 35 34 34 33 36 38 41 46 47 51 51 52 55 56 58 55
33 33 40 45 48 57 58 57 57 57 58 56 61 62 62 63 63 58 55 53 48 45 41 41 43 41 38 41 41 42 44 44 43 45 49 52 57 57 53 46 43 45 48
37 45 44 41 43 47 53 55 60 61 65 63 59 59 57 61 61 65 65 64 60 58 56 46 49 48 46 45 42 46 49 51 53 55 51 23 18 39 46 46 49 50 53
33 30 34 35 42 47 51 55 61 64 66 66 69 67 68 67 69 66 65 64 59 61 57 52 52 55 52 56 53 55 58 58 58 62 67 62 67 54 42 57 62 60 69
45 49 54 53 57 57 57 62 64 70 71 68 74 73 65 63 56 54 60 64 60 59 59 60 58 57 56 54 59 55 59 58 61 58 66 62 64 66 69 71 68 65 67
38 41 42 42 46 47 45 47 55 61 62 70 67 71 63 60 59 60 54 52 51 51 51 55 54 57 49 57 53 55 52 52 52 53 55 57 64 61 60 65 69 71 76
28 26 24 23 25 25 27 32 38 46 51 57 70 57 51 51 54 57 61 50 44 43 39 37 43 47 48 48 48 46 48 47 47 56 57 53 57 54 53 59 67 72 81
27 25 22 19 17 15 16 15 20 28 35 39 50 59 49 44 43 48 54 51 44 39 37 38 40 41 44 45 46 48 50 47 51 50 49 49 49 51 51 57 64 73 79
28 28 24 22 19 16 14 11 13 19 24 32 40 44 42 36 39 41 45 47 43 41 40 39 40 40 41 43 45 45 50 49 50 46 50 51 49 53 55 55 59 64 69
28 26 26 24 23 20 17 16 16 18 21 25 29 37 35 31 36 41 42 39 38 38 39 40 40 40 42 44 47 49 46 51 47 48 49 50 51 53 56 58 61 64 73
32 30 31 27 22 20 19 19 19 19 19 20 22 23 24 24 26 28 31 34 35 35 36 35 37 39 39 41 46 45 43 45 46 46 49 51 51 55 57 58 60 64 69
38 38 33 28 26 24 23 24 24 21 19 19 22 24 23 23 22 24 24 25 25 27 27 30 31 31 29 29 31 32 35 38 40 43 46 48 50 53 53 56 60 62 65
35 33 32 30 29 28 28 26 24 23 23 24 23 22 22 22 21 20 20 19 18 17 15 15 16 17 20 24 26 28 28 31 34 37 41 45 49 53 54 57 60 65 68
36 38 37 39 38 35 31 28 29 28 28 28 26 25 25 24 22 19 17 15 12 10 9 7 5 8 13 19 23 27 30 33 37 40 44 47 50 53 55 58 61 64 68
48 50 49 47 42 41 40 39 36 35 33 32 30 29 28 25 22 19 15 11 7 3 2 5 10 14 21 27 33 37 40 44 47 48 51 54 55 56 58 62 64 66 70
59 56 53 53 51 49 46 43 40 35 33 34 31 29 26 24 20 15 10 5 1 5 9 12 14 18 23 30 36 43 46 48 52 56 58 60 63 65 66 67 69 70 72
63 62 65 61 57 56 51 46 44 40 40 34 31 28 23 18 14 10 6 2 3 7 12 16 20 23 30 38 45 51 54 57 60 64 68 70 70 73 75 75 75 74 71
63 67 72 70 65 60 57 52 47 45 39 35 31 27 22 17 12 7 3 5 9 15 20 24 29 33 39 46 52 57 62 65 66 68 69 71 72 71 73 75 76 76 74
79 79 78 76 70 67 56 51 50 46 40 34 29 24 19 13 8 3 5 12 18 23 28 34 37 40 42 47 52 58 63 66 68 68 67 68 70 69 69 71 75 78 78
64 69 74 75 71 63 58 57 52 44 37 31 26 20 13 6 5 11 19 27 32 34 34 36 40 44 46 48 51 56 62 66 68 71 72 72 72 72 63 63 70 83 91
65 69 72 72 66 62 61 56 48 41 35 28 19 11 8 11 15 19 22 25 29 33 36 38 40 45 49 52 56 58 61 64 69 73 78 76 74 74 69 66 72 78 76
65 70 72 67 65 62 58 54 47 38 29 19 13 9 9 15 20 21 21 26 31 36 38 41 43 47 50 54 58 60 61 65 72 77 81 83 82 77 73 72 73 66 65
60 61 62 65 62 58 50 48 40 32 23 13 7 5 7 13 13 16 20 25 32 37 42 47 51 54 55 57 58 61 64 66 70 73 78 80 81 80 85 78 69 66 63
46 48 57 61 62 56 47 39 31 23 15 8 3 13 12 9 12 18 23 29 34 39 45 50 55 58 58 58 60 64 67 69 71 74 77 77 77 76 74 72 68 65 64
42 51 56 59 57 48 35 30 25 18 13 21 15 9 9 10 15 21 26 30 34 38 43 47 51 56 59 58 61 63 66 67 68 69 69 72 71 71 71 69 66 65 61
56 58 57 50 39 38 37 29 24 28 20 17 17 10 8 14 19 22 23 26 29 33 39 43 47 50 51 55 59 60 59 61 58 56 50 55 57 60 63 66 68 63 63
Wind_Direction_850mb
237 231 232 223 212 215 218 225 240 241 236 227 226 228 230 230 232 233 233 228 238 238 235 241 243 246 247 246 250 254 257 259 264 271 278 281 283 286 285 285 288 286 285
226 223 217 224 224 220 222 221 227 243 248 243 237 235 235 236 240 238 232 230 234 240 241 238 244 252 246 246 252 261 265 268 267 269 274 281 285 287 291 288 286 290 288
229 214 220 230 226 225 225 226 228 228 244 251 250 230 230 235 237 237 237 237 240 244 252 250 248 249 248 249 258 261 265 269 271 274 269 265 258 282 293 291 287 285 289
223 192 197 211 229 233 233 230 230 229 227 243 248 246 231 231 238 238 241 239 238 244 250 253 255 255 258 257 259 264 268 268 272 276 271 279 275 270 286 283 285 285 286
230 233 231 230 240 246 242 240 238 235 229 225 244 248 247 234 236 241 241 245 244 243 246 251 255 258 261 260 265 265 267 277 272 284 274 277 279 278 272 278 294 292 291
219 233 240 241 245 249 249 243 240 238 234 222 234 245 246 236 234 239 245 244 244 243 246 250 250 254 259 259 261 266 267 272 271 276 286 273 277 283 285 283 291 291 296
227 228 229 232 242 248 247 244 239 234 230 223 219 237 240 238 240 240 244 248 248 245 248 251 250 256 259 262 264 266 269 272 278 279 287 282 283 283 287 289 291 293 297
211 217 220 218 221 224 233 230 232 229 225 224 220 221 238 242 242 239 243 248 253 255 255 254 253 255 257 261 264 272 275 273 282 277 283 284 284 285 288 289 293 295 294
217 216 211 212 215 218 235 229 226 224 221 217 218 218 218 228 235 234 234 241 249 252 254 253 254 256 259 263 270 273 273 278 280 279 287 285 285 287 290 291 290 292 289
212 216 218 220 222 224 227 231 225 218 213 216 220 215 214 222 229 233 235 239 247 253 256 255 256 257 261 263 267 266 273 278 278 284 284 285 286 287 287 288 289 289 291
218 217 221 222 223 222 222 223 223 220 211 201 197 202 208 212 216 220 231 236 243 248 254 256 258 257 260 260 267 272 276 277 280 283 286 288 288 286 286 287 286 285 284
214 216 221 219 213 212 211 211 210 205 201 191 180 173 179 188 198 206 214 222 228 238 243 248 255 259 261 266 270 272 276 282 286 289 291 294 297 297 298 298 298 297 294
206 213 214 210 207 205 205 202 193 189 182 179 179 176 179 186 190 195 203 210 216 221 230 245 257 269 278 282 284 289 293 296 300 303 304 305 305 305 305 306 303 300 299
216 216 209 205 203 200 197 191 185 182 178 174 171 168 166 166 167 166 169 171 176 186 196 212 249 287 298 300 299 298 299 300 301 302 302 303 303 304 304 302 299 298 296
219 219 211 208 201 197 192 188 186 184 181 177 169 165 162 161 159 156 151 147 147 156 272 305 314 315 313 309 305 304 304 303 303 304 304 302 301 300 299 299 300 299 298
225 217 212 211 205 200 197 192 191 186 181 177 169 164 162 160 159 154 148 139 349 330 322 323 327 325 318 313 311 310 311 311 310 310 309 309 309 307 305 302 299 297 297
228 216 216 213 207 202 201 195 192 188 183 174 169 166 163 161 156 150 144 120 355 340 329 333 331 328 321 317 315 313 315 315 314 312 310 306 305 304 304 303 301 299 297
231 226 223 215 210 206 202 196 189 182 181 175 172 169 167 164 155 142 104 10 343 333 333 334 328 331 323 317 317 314 311 309 307 305 304 304 305 306 306 305 304 304 303
247 234 224 217 207 206 200 192 186 184 180 177 173 169 164 158 146 114 359 341 337 333 333 333 322 320 320 317 316 314 312 310 308 307 306 306 307 308 309 309 308 307 307
235 225 221 215 207 199 195 190 186 182 178 172 167 158 146 120 32 358 347 339 332 326 321 327 327 325 324 324 323 321 319 317 316 315 316 316 316 316 315 311 310 306 309
221 214 210 207 198 192 188 184 182 177 169 160 148 123 65 13 352 343 326 315 319 327 328 329 330 330 331 332 330 329 327 324 321 320 320 318 316 313 310 307 302 301 306
198 205 204 197 188 185 183 179 174 164 153 141 119 82 17 341 314 300 315 323 328 328 328 331 334 335 336 334 332 329 326 323 320 320 318 317 317 314 311 308 306 302 306
197 198 197 184 178 175 173 171 163 148 136 124 117 42 309 274 297 317 325 329 330 330 331 333 334 333 332 331 328 325 324 322 320 319 316 315 315 317 317 319 315 315 312
201 194 186 177 171 167 159 155 152 152 155 129 134 231 241 285 315 323 327 328 327 329 332 332 330 327 328 328 326 326 325 325 322 321 319 320 321 322 326 327 328 324 323
203 186 180 172 163 161 167 172 173 164 158 199 199 235 260 303 319 319 321 328 330 328 330 330 331 330 331 333 333 330 330 328 326 322 323 324 326 327 330 330 327 325 322
188 178 172 168 172 177 182 170 159 187 186 217 215 224 268 291 303 314 322 322 325 333 336 335 333 332 332 331 330 328 325 328 327 328 322 319 320 319 322 325 328 326 326